STARLINK-11728 [DTC]

Last updated on Thu Jul 03 2025 00:02:06 GMT+0000 (Coordinated Universal Time)

1 64323U 25124G 25183.45322356 .00309318 00000+0 17112-2 0 9998 2 64323 43.0000 98.0214 0001083 282.2285 77.8464 15.77926014 3474
UTC large
Height (km)
Speed (km/s)
/
Latitude / Longitude
Inclination (degrees)
Orbital Period (minutes)
Azimuth
Elevation
Range (km)
Doppler Factor

Next 0 passes for location: London (51.5072 / 0.1276)

Sorry there are no passes over London.